Time,TemperatureF,DewpointF,PressureIn,WindDirection,WindDirectionDegrees,WindSpeedMPH,WindSpeedGustMPH,Humidity,HourlyPrecipIn,Conditions,Clouds,dailyrainin,SoftwareType,DateUTC
2013-10-02 00:02:00,77.5,75.0,29.87,East,100,6.0,12.0,92,0.00,,,0.00,weatherlink.com 1.10,2013-10-02 05:02:00,
2013-10-02 00:17:00,77.4,75.0,29.86,SSE,159,5.0,11.0,92,0.00,,,0.00,weatherlink.com 1.10,2013-10-02 05:17:00,
2013-10-02 00:32:00,77.1,75.0,29.87,SSE,156,5.0,12.0,93,0.00,,,0.00,weatherlink.com 1.10,2013-10-02 05:32:00,
2013-10-02 00:48:00,76.9,75.0,29.87,SSE,147,6.0,10.0,93,0.00,,,0.00,weatherlink.com 1.10,2013-10-02 05:48:00,
2013-10-02 01:03:00,76.7,75.0,29.87,SE,133,6.0,10.0,94,0.00,,,0.00,weatherlink.com 1.10,2013-10-02 06:03:00,
2013-10-02 01:18:00,76.6,75.0,29.87,SSE,158,4.0,9.0,94,0.00,,,0.00,weatherlink.com 1.10,2013-10-02 06:18:00,
2013-10-02 01:33:00,76.6,75.0,29.87,SSE,156,6.0,10.0,94,0.00,,,0.00,weatherlink.com 1.10,2013-10-02 06:33:00,
2013-10-02 01:48:00,76.7,75.0,29.88,SSE,153,6.0,10.0,94,0.00,,,0.00,weatherlink.com 1.10,2013-10-02 06:48:00,
2013-10-02 02:03:00,77.0,75.0,29.88,SSE,155,2.0,8.0,94,0.00,,,0.00,weatherlink.com 1.10,2013-10-02 07:03:00,
2013-10-02 02:18:00,77.0,75.0,29.88,South,177,3.0,7.0,94,0.00,,,0.00,weatherlink.com 1.10,2013-10-02 07:18:00,
2013-10-02 02:33:00,77.1,75.0,29.88,SSE,159,6.0,7.0,94,0.00,,,0.00,weatherlink.com 1.10,2013-10-02 07:33:00,
2013-10-02 02:48:00,77.1,75.0,29.88,SE,141,5.0,8.0,94,0.00,,,0.00,weatherlink.com 1.10,2013-10-02 07:48:00,
2013-10-02 03:03:00,77.0,75.0,29.87,SE,126,3.0,8.0,94,0.00,,,0.00,weatherlink.com 1.10,2013-10-02 08:03:00,
2013-10-02 03:18:00,77.0,75.0,29.87,ESE,102,1.0,9.0,93,0.00,,,0.00,weatherlink.com 1.10,2013-10-02 08:18:00,
2013-10-02 03:33:00,76.9,75.0,29.87,SE,143,3.0,8.0,93,0.00,,,0.00,weatherlink.com 1.10,2013-10-02 08:33:00,
2013-10-02 03:48:00,76.9,75.0,29.86,SE,131,1.0,8.0,93,0.00,,,0.00,weatherlink.com 1.10,2013-10-02 08:48:00,
2013-10-02 04:03:00,76.9,75.0,29.86,SSE,160,2.0,7.0,93,0.00,,,0.00,weatherlink.com 1.10,2013-10-02 09:03:00,
2013-10-02 04:18:00,76.9,75.0,29.86,ESE,120,4.0,7.0,93,0.00,,,0.00,weatherlink.com 1.10,2013-10-02 09:18:00,
2013-10-02 04:33:00,76.9,75.0,29.86,ESE,109,2.0,7.0,94,0.00,,,0.00,weatherlink.com 1.10,2013-10-02 09:33:00,
2013-10-02 04:48:00,76.7,75.0,29.87,SE,143,1.0,3.0,94,0.00,,,0.00,weatherlink.com 1.10,2013-10-02 09:48:00,
2013-10-02 05:03:00,76.6,75.0,29.86,SE,128,2.0,2.0,94,0.00,,,0.00,weatherlink.com 1.10,2013-10-02 10:03:00,
2013-10-02 05:18:00,76.5,75.0,29.86,SSE,155,0.0,3.0,94,0.00,,,0.00,weatherlink.com 1.10,2013-10-02 10:18:00,
2013-10-02 05:33:00,76.3,75.0,29.86,SE,138,1.0,3.0,94,0.00,,,0.00,weatherlink.com 1.10,2013-10-02 10:33:00,
2013-10-02 05:48:00,76.1,75.0,29.87,ESE,111,0.0,3.0,95,0.00,,,0.00,weatherlink.com 1.10,2013-10-02 10:48:00,
2013-10-02 06:03:00,76.1,75.0,29.87,ESE,113,2.0,5.0,95,0.00,,,0.00,weatherlink.com 1.10,2013-10-02 11:03:00,
2013-10-02 06:18:00,75.8,74.0,29.87,SSE,148,3.0,5.0,95,0.00,,,0.00,weatherlink.com 1.10,2013-10-02 11:18:00,
2013-10-02 06:33:00,75.9,74.0,29.87,SSE,156,1.0,7.0,95,0.00,,,0.00,weatherlink.com 1.10,2013-10-02 11:33:00,
2013-10-02 06:48:00,75.7,74.0,29.88,SSE,152,2.0,5.0,95,0.00,,,0.00,weatherlink.com 1.10,2013-10-02 11:48:00,
2013-10-02 07:03:00,75.6,74.0,29.88,SE,143,1.0,4.0,95,0.00,,,0.00,weatherlink.com 1.10,2013-10-02 12:03:00,
2013-10-02 07:18:00,75.7,74.0,29.88,SE,130,1.0,4.0,95,0.00,,,0.00,weatherlink.com 1.10,2013-10-02 12:18:00,
2013-10-02 07:33:00,75.9,74.0,29.89,SE,132,0.0,4.0,95,0.00,,,0.00,weatherlink.com 1.10,2013-10-02 12:33:00,
2013-10-02 07:48:00,76.0,75.0,29.89,SSE,152,1.0,6.0,95,0.00,,,0.00,weatherlink.com 1.10,2013-10-02 12:48:00,
2013-10-02 08:03:00,76.1,75.0,29.89,SE,128,2.0,4.0,95,0.00,,,0.00,weatherlink.com 1.10,2013-10-02 13:03:00,
2013-10-02 08:18:00,76.5,75.0,29.90,SSE,149,2.0,6.0,94,0.00,,,0.00,weatherlink.com 1.10,2013-10-02 13:18:00,
2013-10-02 08:33:00,76.8,75.0,29.90,SSE,149,3.0,5.0,94,0.00,,,0.00,weatherlink.com 1.10,2013-10-02 13:33:00,
2013-10-02 08:48:00,77.2,75.0,29.90,SE,141,3.0,9.0,93,0.00,,,0.00,weatherlink.com 1.10,2013-10-02 13:48:00,
2013-10-02 09:03:00,77.7,75.0,29.91,SSE,156,6.0,10.0,91,0.00,,,0.00,weatherlink.com 1.10,2013-10-02 14:03:00,
2013-10-02 09:18:00,78.9,76.0,29.91,SSE,160,4.0,9.0,90,0.00,,,0.00,weatherlink.com 1.10,2013-10-02 14:18:00,
2013-10-02 09:33:00,79.3,75.0,29.91,SSE,150,3.0,7.0,87,0.00,,,0.00,weatherlink.com 1.10,2013-10-02 14:33:00,
2013-10-02 09:48:00,80.7,76.0,29.91,SSE,158,3.0,12.0,84,0.00,,,0.00,weatherlink.com 1.10,2013-10-02 14:48:00,
2013-10-02 10:03:00,80.8,75.0,29.91,SSE,156,3.0,9.0,83,0.00,,,0.00,weatherlink.com 1.10,2013-10-02 15:03:00,
2013-10-02 10:18:00,80.6,74.0,29.92,SSW,194,2.0,11.0,81,0.00,,,0.00,weatherlink.com 1.10,2013-10-02 15:18:00,
2013-10-02 10:33:00,82.1,75.0,29.92,SSE,155,1.0,8.0,80,0.00,,,0.00,weatherlink.com 1.10,2013-10-02 15:33:00,
2013-10-02 10:48:00,82.2,74.0,29.92,SE,140,3.0,8.0,77,0.00,,,0.00,weatherlink.com 1.10,2013-10-02 15:48:00,
2013-10-02 11:03:00,83.7,76.0,29.92,SSE,156,4.0,8.0,77,0.00,,,0.00,weatherlink.com 1.10,2013-10-02 16:03:00,
2013-10-02 11:19:00,84.7,75.0,29.92,SSE,148,3.0,8.0,73,0.00,,,0.00,weatherlink.com 1.10,2013-10-02 16:19:00,
2013-10-02 11:34:00,84.8,76.0,29.91,SW,217,5.0,7.0,74,0.00,,,0.00,weatherlink.com 1.10,2013-10-02 16:34:00,
2013-10-02 11:49:00,85.4,75.0,29.91,SE,140,4.0,9.0,71,0.00,,,0.00,weatherlink.com 1.10,2013-10-02 16:49:00,
2013-10-02 12:04:00,85.3,75.0,29.91,SSE,160,5.0,8.0,71,0.00,,,0.00,weatherlink.com 1.10,2013-10-02 17:04:00,
2013-10-02 12:19:00,85.9,75.0,29.90,ESE,108,7.0,10.0,69,0.00,,,0.00,weatherlink.com 1.10,2013-10-02 17:19:00,
2013-10-02 12:34:00,86.3,75.0,29.90,SSE,149,2.0,8.0,68,0.00,,,0.00,weatherlink.com 1.10,2013-10-02 17:34:00,
2013-10-02 12:49:00,86.9,74.0,29.89,South,172,4.0,9.0,65,0.00,,,0.00,weatherlink.com 1.10,2013-10-02 17:49:00,
2013-10-02 13:04:00,86.3,74.0,29.89,ENE,75,5.0,10.0,66,0.00,,,0.00,weatherlink.com 1.10,2013-10-02 18:04:00,
2013-10-02 13:19:00,87.2,74.0,29.88,SE,143,3.0,9.0,64,0.00,,,0.00,weatherlink.com 1.10,2013-10-02 18:19:00,
2013-10-02 13:34:00,87.6,74.0,29.87,SE,145,6.0,11.0,64,0.00,,,0.00,weatherlink.com 1.10,2013-10-02 18:34:00,
2013-10-02 13:49:00,88.4,74.0,29.86,ESE,113,4.0,10.0,62,0.00,,,0.00,weatherlink.com 1.10,2013-10-02 18:49:00,
2013-10-02 14:04:00,88.0,73.0,29.85,SSE,163,5.0,10.0,61,0.00,,,0.00,weatherlink.com 1.10,2013-10-02 19:04:00,
2013-10-02 14:19:00,88.7,74.0,29.84,SE,126,5.0,10.0,62,0.00,,,0.00,weatherlink.com 1.10,2013-10-02 19:19:00,
2013-10-02 14:34:00,88.8,72.0,29.84,SW,229,5.0,7.0,58,0.00,,,0.00,weatherlink.com 1.10,2013-10-02 19:34:00,
2013-10-02 14:49:00,89.6,74.0,29.83,SE,131,3.0,9.0,61,0.00,,,0.00,weatherlink.com 1.10,2013-10-02 19:49:00,
2013-10-02 15:04:00,89.9,73.0,29.82,SSE,149,2.0,8.0,57,0.00,,,0.00,weatherlink.com 1.10,2013-10-02 20:04:00,
2013-10-02 15:19:00,89.3,74.0,29.82,East,97,6.0,7.0,60,0.00,,,0.00,weatherlink.com 1.10,2013-10-02 20:19:00,
2013-10-02 15:34:00,90.1,73.0,29.82,ESE,115,3.0,7.0,58,0.00,,,0.00,weatherlink.com 1.10,2013-10-02 20:34:00,
2013-10-02 15:49:00,88.8,73.0,29.82,South,190,2.0,7.0,59,0.00,,,0.00,weatherlink.com 1.10,2013-10-02 20:49:00,
2013-10-02 16:04:00,88.9,73.0,29.82,SSE,148,4.0,10.0,59,0.00,,,0.00,weatherlink.com 1.10,2013-10-02 21:04:00,
2013-10-02 16:19:00,89.5,72.0,29.82,SSE,164,6.0,9.0,56,0.00,,,0.00,weatherlink.com 1.10,2013-10-02 21:19:00,
2013-10-02 16:34:00,89.8,74.0,29.82,SE,131,4.0,8.0,59,0.00,,,0.00,weatherlink.com 1.10,2013-10-02 21:34:00,
2013-10-02 16:50:00,89.3,72.0,29.81,East,98,6.0,9.0,57,0.00,,,0.00,weatherlink.com 1.10,2013-10-02 21:50:00,
2013-10-02 17:04:00,89.4,72.0,29.81,SE,131,3.0,10.0,57,0.00,,,0.00,weatherlink.com 1.10,2013-10-02 22:04:00,
2013-10-02 17:19:00,89.2,72.0,29.81,ESE,120,1.0,9.0,57,0.00,,,0.00,weatherlink.com 1.10,2013-10-02 22:19:00,
2013-10-02 17:34:00,89.5,72.0,29.81,SE,126,2.0,9.0,56,0.00,,,0.00,weatherlink.com 1.10,2013-10-02 22:34:00,
2013-10-02 17:49:00,89.5,72.0,29.81,South,172,3.0,6.0,56,0.00,,,0.00,weatherlink.com 1.10,2013-10-02 22:49:00,
2013-10-02 18:04:00,89.3,72.0,29.81,SSE,166,3.0,9.0,56,0.00,,,0.00,weatherlink.com 1.10,2013-10-02 23:04:00,
2013-10-02 18:19:00,88.9,72.0,29.81,ESE,119,2.0,6.0,58,0.00,,,0.00,weatherlink.com 1.10,2013-10-02 23:19:00,
2013-10-02 18:35:00,88.2,72.0,29.80,SSE,159,3.0,6.0,59,0.00,,,0.00,weatherlink.com 1.10,2013-10-02 23:35:00,
2013-10-02 18:49:00,87.6,72.0,29.81,ESE,115,2.0,3.0,60,0.00,,,0.00,weatherlink.com 1.10,2013-10-02 23:49:00,
2013-10-02 19:04:00,86.5,72.0,29.81,SE,143,0.0,2.0,62,0.00,,,0.00,weatherlink.com 1.10,2013-10-03 00:04:00,
2013-10-02 19:19:00,84.9,71.0,29.81,SE,145,1.0,1.0,64,0.00,,,0.00,weatherlink.com 1.10,2013-10-03 00:19:00,
2013-10-02 19:34:00,83.6,71.0,29.81,SE,146,0.0,1.0,66,0.00,,,0.00,weatherlink.com 1.10,2013-10-03 00:34:00,
2013-10-02 19:49:00,82.8,70.0,29.81,SSE,156,0.0,2.0,66,0.00,,,0.00,weatherlink.com 1.10,2013-10-03 00:49:00,
2013-10-02 20:05:00,82.3,70.0,29.82,SSE,158,1.0,2.0,67,0.00,,,0.00,weatherlink.com 1.10,2013-10-03 01:05:00,
2013-10-02 20:19:00,82.1,71.0,29.82,SSE,152,2.0,3.0,68,0.00,,,0.00,weatherlink.com 1.10,2013-10-03 01:19:00,
2013-10-02 20:34:00,81.1,71.0,29.83,ESE,122,1.0,3.0,72,0.00,,,0.00,weatherlink.com 1.10,2013-10-03 01:34:00,
2013-10-02 20:50:00,80.4,72.0,29.83,SE,143,3.0,5.0,76,0.00,,,0.00,weatherlink.com 1.10,2013-10-03 01:50:00,
2013-10-02 21:04:00,80.5,73.0,29.84,SSE,158,3.0,7.0,79,0.00,,,0.00,weatherlink.com 1.10,2013-10-03 02:04:00,
2013-10-02 21:20:00,80.9,74.0,29.84,SSE,151,5.0,8.0,80,0.00,,,0.00,weatherlink.com 1.10,2013-10-03 02:20:00,
2013-10-02 21:34:00,80.9,75.0,29.85,SSE,148,7.0,11.0,81,0.00,,,0.00,weatherlink.com 1.10,2013-10-03 02:34:00,
2013-10-02 21:49:00,80.8,75.0,29.86,SE,135,4.0,13.0,81,0.00,,,0.00,weatherlink.com 1.10,2013-10-03 02:49:00,
2013-10-02 22:04:00,80.4,75.0,29.87,SE,128,7.0,10.0,82,0.00,,,0.00,weatherlink.com 1.10,2013-10-03 03:04:00,
2013-10-02 22:19:00,79.9,75.0,29.87,ESE,105,6.0,10.0,84,0.00,,,0.00,weatherlink.com 1.10,2013-10-03 03:19:00,
2013-10-02 22:35:00,79.4,75.0,29.88,SSE,154,4.0,10.0,85,0.00,,,0.00,weatherlink.com 1.10,2013-10-03 03:35:00,
2013-10-02 22:50:00,79.0,75.0,29.88,SSE,148,4.0,11.0,87,0.00,,,0.00,weatherlink.com 1.10,2013-10-03 03:50:00,
2013-10-02 23:05:00,78.6,75.0,29.88,SSE,151,3.0,12.0,88,0.00,,,0.00,weatherlink.com 1.10,2013-10-03 04:05:00,
2013-10-02 23:20:00,78.3,75.0,29.88,SSE,155,4.0,11.0,88,0.00,,,0.00,weatherlink.com 1.10,2013-10-03 04:20:00,
2013-10-02 23:34:00,78.0,75.0,29.88,SE,139,5.0,9.0,89,0.00,,,0.00,weatherlink.com 1.10,2013-10-03 04:34:00,
2013-10-02 23:50:00,77.7,75.0,29.88,SSE,147,8.0,10.0,90,0.00,,,0.00,weatherlink.com 1.10,2013-10-03 04:50:00,